Time,TemperatureF,DewpointF,PressureIn,WindDirection,WindDirectionDegrees,WindSpeedMPH,WindSpeedGustMPH,Humidity,HourlyPrecipIn,Conditions,Clouds,dailyrainin,SoftwareType,DateUTC
2013-05-15 00:00:00,46.9,22.7,29.32,ESE,120,0.0,0.0,38,0.00,,CLR,0.00,VWS V14.00,2013-05-15 07:00:00,
2013-05-15 00:05:00,46.9,23.3,29.32,ESE,120,0.0,0.0,39,0.00,,CLR,0.00,VWS V14.00,2013-05-15 07:05:00,
2013-05-15 00:10:00,46.8,23.1,29.32,ESE,120,0.0,0.0,39,0.00,,CLR,0.00,VWS V14.00,2013-05-15 07:10:00,
2013-05-15 00:15:00,46.6,23.0,29.32,ESE,120,0.0,0.0,39,0.00,,CLR,0.00,VWS V14.00,2013-05-15 07:15:00,
2013-05-15 00:21:00,46.4,22.8,29.32,ESE,120,0.0,0.0,39,0.00,,CLR,0.00,VWS V14.00,2013-05-15 07:21:00,
2013-05-15 00:26:00,46.2,23.2,29.32,ESE,120,0.0,0.0,40,0.00,,CLR,0.00,VWS V14.00,2013-05-15 07:26:00,
2013-05-15 00:31:00,46.0,23.1,29.32,ESE,120,0.0,0.0,40,0.00,,CLR,0.00,VWS V14.00,2013-05-15 07:31:00,
2013-05-15 00:37:00,45.9,22.9,29.32,ESE,120,0.0,0.0,40,0.00,,CLR,0.00,VWS V14.00,2013-05-15 07:37:00,
2013-05-15 00:42:00,45.5,23.2,29.32,ESE,120,0.0,0.0,41,0.00,,CLR,0.00,VWS V14.00,2013-05-15 07:42:00,
2013-05-15 00:47:00,45.5,23.2,29.32,ESE,120,0.0,0.0,41,0.00,,CLR,0.00,VWS V14.00,2013-05-15 07:47:00,
2013-05-15 00:54:00,45.5,23.8,29.32,ESE,120,0.0,0.0,42,0.00,,CLR,0.00,VWS V14.00,2013-05-15 07:54:00,
2013-05-15 00:59:00,45.5,23.8,29.32,ESE,120,0.0,0.0,42,0.00,,CLR,0.00,VWS V14.00,2013-05-15 07:59:00,
2013-05-15 01:05:00,45.5,23.8,29.32,ESE,120,0.0,0.0,42,0.00,,CLR,0.00,VWS V14.00,2013-05-15 08:05:00,
2013-05-15 01:10:00,45.5,23.8,29.32,ESE,120,0.0,0.0,42,0.00,,CLR,0.00,VWS V14.00,2013-05-15 08:10:00,
2013-05-15 01:16:00,45.5,23.8,29.32,ESE,120,0.0,0.0,42,0.00,,CLR,0.00,VWS V14.00,2013-05-15 08:16:00,
2013-05-15 01:22:00,45.5,23.8,29.32,ESE,120,0.0,0.0,42,0.00,,CLR,0.00,VWS V14.00,2013-05-15 08:22:00,
2013-05-15 01:27:00,45.3,24.2,29.32,ESE,120,0.0,0.0,43,0.00,,CLR,0.00,VWS V14.00,2013-05-15 08:27:00,
2013-05-15 01:33:00,45.3,24.2,29.32,ESE,120,0.0,0.0,43,0.00,,CLR,0.00,VWS V14.00,2013-05-15 08:33:00,
2013-05-15 01:38:00,45.5,24.3,29.32,ESE,120,0.0,0.0,43,0.00,,CLR,0.00,VWS V14.00,2013-05-15 08:38:00,
2013-05-15 01:44:00,45.5,24.3,29.32,ESE,120,0.0,0.0,43,0.00,,CLR,0.00,VWS V14.00,2013-05-15 08:44:00,
2013-05-15 01:49:00,45.7,24.5,29.32,ESE,120,0.0,0.0,43,0.00,,CLR,0.00,VWS V14.00,2013-05-15 08:49:00,
2013-05-15 01:54:00,45.9,24.6,29.32,ESE,120,0.0,0.0,43,0.00,,CLR,0.00,VWS V14.00,2013-05-15 08:54:00,
2013-05-15 01:59:00,46.0,24.8,29.32,ESE,120,0.0,0.0,43,0.00,,CLR,0.00,VWS V14.00,2013-05-15 08:59:00,
2013-05-15 02:05:00,46.0,24.8,29.32,ESE,120,0.0,0.0,43,0.00,,SCT120,0.00,VWS V14.00,2013-05-15 09:05:00,
2013-05-15 02:10:00,46.0,24.2,29.32,ESE,120,0.0,0.0,42,0.00,,SCT120,0.00,VWS V14.00,2013-05-15 09:10:00,
2013-05-15 02:16:00,45.9,24.1,29.32,ESE,120,0.0,0.0,42,0.00,,SCT120,0.00,VWS V14.00,2013-05-15 09:16:00,
2013-05-15 02:21:00,45.7,23.9,29.32,ESE,120,0.0,0.0,42,0.00,,SCT120,0.00,VWS V14.00,2013-05-15 09:21:00,
2013-05-15 02:26:00,45.3,23.6,29.32,ESE,120,0.0,0.0,42,0.00,,SCT120,0.00,VWS V14.00,2013-05-15 09:26:00,
2013-05-15 02:32:00,45.1,23.4,29.32,ESE,120,0.0,0.0,42,0.00,,SCT120,0.00,VWS V14.00,2013-05-15 09:32:00,
2013-05-15 02:38:00,45.0,23.3,29.32,ESE,120,0.0,0.0,42,0.00,,SCT120,0.00,VWS V14.00,2013-05-15 09:38:00,
2013-05-15 02:43:00,45.0,23.8,29.32,ESE,120,0.0,0.0,43,0.00,,SCT120,0.00,VWS V14.00,2013-05-15 09:43:00,
2013-05-15 02:49:00,44.8,23.7,29.32,ESE,120,0.0,0.0,43,0.00,,SCT120,0.00,VWS V14.00,2013-05-15 09:49:00,
2013-05-15 02:54:00,44.8,23.7,29.32,ESE,120,0.0,0.0,43,0.00,,SCT120,0.00,VWS V14.00,2013-05-15 09:54:00,
2013-05-15 02:59:00,44.8,23.7,29.32,ESE,120,0.0,0.0,43,0.00,,SCT120,0.00,VWS V14.00,2013-05-15 09:59:00,
2013-05-15 03:05:00,44.6,23.5,29.32,ESE,120,0.0,0.0,43,0.00,,CLR,0.00,VWS V14.00,2013-05-15 10:05:00,
2013-05-15 03:10:00,44.6,23.5,29.32,ESE,120,0.0,0.0,43,0.00,,CLR,0.00,VWS V14.00,2013-05-15 10:10:00,
2013-05-15 03:15:00,44.8,23.7,29.32,ESE,120,0.0,0.0,43,0.00,,CLR,0.00,VWS V14.00,2013-05-15 10:15:00,
2013-05-15 03:21:00,44.6,23.5,29.32,ESE,120,0.0,0.0,43,0.00,,CLR,0.00,VWS V14.00,2013-05-15 10:21:00,
2013-05-15 03:27:00,44.6,23.5,29.32,ESE,120,0.0,0.0,43,0.00,,CLR,0.00,VWS V14.00,2013-05-15 10:27:00,
2013-05-15 03:33:00,44.4,23.9,29.32,ESE,120,0.0,0.0,44,0.00,,CLR,0.00,VWS V14.00,2013-05-15 10:33:00,
2013-05-15 03:38:00,44.2,23.7,29.32,ESE,120,0.0,0.0,44,0.00,,CLR,0.00,VWS V14.00,2013-05-15 10:38:00,
2013-05-15 03:44:00,44.1,23.6,29.32,ESE,120,0.0,0.0,44,0.00,,CLR,0.00,VWS V14.00,2013-05-15 10:44:00,
2013-05-15 03:49:00,44.1,23.6,29.32,ESE,120,0.0,0.0,44,0.00,,CLR,0.00,VWS V14.00,2013-05-15 10:49:00,
2013-05-15 03:55:00,43.9,23.9,29.32,ESE,120,0.0,0.0,45,0.00,,CLR,0.00,VWS V14.00,2013-05-15 10:55:00,
2013-05-15 04:00:00,43.9,23.9,29.32,ESE,120,0.0,0.0,45,0.00,,CLR,0.00,VWS V14.00,2013-05-15 11:00:00,
2013-05-15 04:06:00,43.7,23.8,29.32,ESE,120,0.0,0.0,45,0.00,,CLR,0.00,VWS V14.00,2013-05-15 11:06:00,
2013-05-15 04:12:00,43.9,24.5,29.32,ESE,120,0.0,0.0,46,0.00,,CLR,0.00,VWS V14.00,2013-05-15 11:12:00,
2013-05-15 04:17:00,44.1,24.6,29.32,ESE,120,0.0,0.0,46,0.00,,CLR,0.00,VWS V14.00,2013-05-15 11:17:00,
2013-05-15 04:23:00,44.1,24.6,29.32,ESE,120,0.0,0.0,46,0.00,,CLR,0.00,VWS V14.00,2013-05-15 11:23:00,
2013-05-15 04:29:00,44.1,24.6,29.32,ESE,120,0.0,0.0,46,0.00,,CLR,0.00,VWS V14.00,2013-05-15 11:29:00,
2013-05-15 04:35:00,44.1,24.6,29.32,NNE,32,0.0,2.2,46,0.00,,CLR,0.00,VWS V14.00,2013-05-15 11:35:00,
2013-05-15 04:41:00,44.1,24.6,29.32,NNE,32,0.0,0.0,46,0.00,,CLR,0.00,VWS V14.00,2013-05-15 11:41:00,
2013-05-15 04:46:00,44.1,24.6,29.32,NNE,32,0.0,0.0,46,0.00,,CLR,0.00,VWS V14.00,2013-05-15 11:46:00,
2013-05-15 04:53:00,44.1,24.6,29.32,NNE,32,0.0,0.0,46,0.00,,CLR,0.00,VWS V14.00,2013-05-15 11:53:00,
2013-05-15 04:59:00,44.1,24.6,29.32,NNE,32,0.0,0.0,46,0.00,,CLR,0.00,VWS V14.00,2013-05-15 11:59:00,
2013-05-15 05:04:00,43.9,24.5,29.32,NNE,32,0.0,0.0,46,0.00,,SCT110,0.00,VWS V14.00,2013-05-15 12:04:00,
2013-05-15 05:10:00,43.9,24.5,29.32,NNE,32,0.0,0.0,46,0.00,,SCT110,0.00,VWS V14.00,2013-05-15 12:10:00,
2013-05-15 05:16:00,43.9,24.5,29.32,NNE,32,0.0,0.0,46,0.00,,SCT110,0.00,VWS V14.00,2013-05-15 12:16:00,
2013-05-15 05:21:00,43.9,24.5,29.32,NNE,32,0.0,0.0,46,0.00,,SCT110,0.00,VWS V14.00,2013-05-15 12:21:00,
2013-05-15 05:27:00,43.9,24.5,29.32,NNE,32,0.0,0.0,46,0.00,,SCT110,0.00,VWS V14.00,2013-05-15 12:27:00,
2013-05-15 05:33:00,43.9,24.5,29.32,NNE,32,0.0,0.0,46,0.00,,SCT110,0.00,VWS V14.00,2013-05-15 12:33:00,
2013-05-15 05:39:00,43.7,24.3,29.32,NNE,32,0.0,0.0,46,0.00,,SCT110,0.00,VWS V14.00,2013-05-15 12:39:00,
2013-05-15 05:45:00,43.7,24.3,29.32,NNE,32,0.0,0.0,46,0.00,,SCT110,0.00,VWS V14.00,2013-05-15 12:45:00,
2013-05-15 05:51:00,43.7,24.3,29.32,NNE,32,0.0,0.0,46,0.00,,SCT110,0.00,VWS V14.00,2013-05-15 12:51:00,
2013-05-15 05:56:00,43.5,24.1,29.32,NNE,32,0.0,0.0,46,0.00,,SCT110,0.00,VWS V14.00,2013-05-15 12:56:00,
2013-05-15 06:02:00,43.5,24.1,29.32,NNE,32,0.0,0.0,46,0.00,,CLR,0.00,VWS V14.00,2013-05-15 13:02:00,
2013-05-15 06:07:00,43.5,24.6,29.32,NNE,32,0.0,0.0,47,0.00,,CLR,0.00,VWS V14.00,2013-05-15 13:07:00,
2013-05-15 06:12:00,43.5,24.6,29.32,NNE,32,0.0,0.0,47,0.00,,CLR,0.00,VWS V14.00,2013-05-15 13:12:00,
2013-05-15 06:19:00,43.5,24.6,29.32,NNE,32,0.0,0.0,47,0.00,,CLR,0.00,VWS V14.00,2013-05-15 13:19:00,
2013-05-15 06:24:00,43.3,24.5,29.32,NNE,32,0.0,0.0,47,0.00,,CLR,0.00,VWS V14.00,2013-05-15 13:24:00,
2013-05-15 06:30:00,43.3,25.0,29.32,NNE,32,0.0,0.0,48,0.00,,CLR,0.00,VWS V14.00,2013-05-15 13:30:00,
2013-05-15 06:36:00,43.3,25.0,29.32,NNE,32,0.0,0.0,48,0.00,,CLR,0.00,VWS V14.00,2013-05-15 13:36:00,
2013-05-15 06:42:00,43.7,25.3,29.32,NNE,32,0.0,0.0,48,0.00,,CLR,0.00,VWS V14.00,2013-05-15 13:42:00,
2013-05-15 06:47:00,44.1,25.6,29.32,East,94,0.0,0.0,48,0.00,,CLR,0.00,VWS V14.00,2013-05-15 13:47:00,
2013-05-15 06:53:00,44.8,26.3,29.32,East,86,0.0,0.0,48,0.00,,CLR,0.00,VWS V14.00,2013-05-15 13:53:00,
2013-05-15 06:59:00,45.9,27.3,29.32,East,86,2.2,2.7,48,0.00,,CLR,0.00,VWS V14.00,2013-05-15 13:59:00,
2013-05-15 07:04:00,46.6,27.5,29.32,East,99,0.0,0.0,47,0.00,,OVC120,0.00,VWS V14.00,2013-05-15 14:04:00,
2013-05-15 07:10:00,47.3,27.6,29.32,East,99,0.0,0.0,46,0.00,,OVC120,0.00,VWS V14.00,2013-05-15 14:10:00,
2013-05-15 07:15:00,48.0,27.7,29.32,East,100,0.0,0.0,45,0.00,,OVC120,0.00,VWS V14.00,2013-05-15 14:15:00,
2013-05-15 07:20:00,48.7,27.3,29.32,East,99,0.0,0.0,43,0.00,,OVC120,0.00,VWS V14.00,2013-05-15 14:20:00,
2013-05-15 07:28:00,49.3,27.2,29.32,East,99,0.0,0.0,42,0.00,,OVC120,0.00,VWS V14.00,2013-05-15 14:28:00,
2013-05-15 07:33:00,49.8,27.1,29.32,East,99,0.0,0.0,41,0.00,,OVC120,0.00,VWS V14.00,2013-05-15 14:33:00,
2013-05-15 07:39:00,50.2,26.2,29.32,East,99,2.2,2.2,39,0.00,,OVC120,0.00,VWS V14.00,2013-05-15 14:39:00,
2013-05-15 07:46:00,51.1,26.4,29.32,ESE,118,0.0,0.0,38,0.00,,OVC120,0.00,VWS V14.00,2013-05-15 14:46:00,
2013-05-15 07:53:00,51.6,26.2,29.32,NE,56,3.1,3.1,37,0.00,,OVC120,0.00,VWS V14.00,2013-05-15 14:53:00,
2013-05-15 07:58:00,52.2,26.0,29.32,NE,50,3.1,3.1,36,0.00,,OVC120,0.00,VWS V14.00,2013-05-15 14:58:00,
2013-05-15 08:03:00,52.7,26.5,29.32,ENE,71,0.0,0.0,36,0.00,,OVC120,0.00,VWS V14.00,2013-05-15 15:03:00,
2013-05-15 08:10:00,53.1,26.8,29.32,NE,42,4.9,4.9,36,0.00,,OVC120,0.00,VWS V14.00,2013-05-15 15:10:00,
2013-05-15 08:15:00,53.6,26.6,29.32,ENE,68,0.0,0.0,35,0.00,,OVC120,0.00,VWS V14.00,2013-05-15 15:15:00,
2013-05-15 08:21:00,54.0,25.5,29.32,SE,136,0.0,2.7,33,0.00,,OVC120,0.00,VWS V14.00,2013-05-15 15:21:00,
2013-05-15 08:27:00,54.3,25.9,29.32,SE,126,3.6,3.6,33,0.00,,OVC120,0.00,VWS V14.00,2013-05-15 15:27:00,
2013-05-15 08:32:00,54.5,25.3,29.32,SE,127,0.0,0.0,32,0.00,,OVC120,0.00,VWS V14.00,2013-05-15 15:32:00,
2013-05-15 08:38:00,55.0,25.0,29.32,ENE,66,0.0,0.0,31,0.00,,OVC120,0.00,VWS V14.00,2013-05-15 15:38:00,
2013-05-15 08:44:00,55.6,24.7,29.32,ESE,122,0.0,0.0,30,0.00,,OVC120,0.00,VWS V14.00,2013-05-15 15:44:00,
2013-05-15 08:50:00,55.9,25.0,29.32,ESE,122,0.0,0.0,30,0.00,,OVC120,0.00,VWS V14.00,2013-05-15 15:50:00,
2013-05-15 08:56:00,56.3,24.5,29.32,ESE,122,0.0,0.0,29,0.00,,OVC120,0.00,VWS V14.00,2013-05-15 15:56:00,
2013-05-15 09:03:00,56.7,24.8,29.32,ESE,122,0.0,0.0,29,0.00,,OVC100,0.00,VWS V14.00,2013-05-15 16:03:00,
2013-05-15 09:09:00,56.7,24.0,29.32,East,92,0.0,0.0,28,0.00,,OVC100,0.00,VWS V14.00,2013-05-15 16:09:00,
2013-05-15 09:14:00,56.7,24.0,29.32,SE,139,0.0,0.0,28,0.00,,OVC100,0.00,VWS V14.00,2013-05-15 16:14:00,
2013-05-15 09:19:00,56.8,24.1,29.32,SE,139,2.7,2.7,28,0.00,,OVC100,0.00,VWS V14.00,2013-05-15 16:19:00,
2013-05-15 09:25:00,56.8,24.1,29.32,SE,139,0.0,0.0,28,0.00,,OVC100,0.00,VWS V14.00,2013-05-15 16:25:00,
2013-05-15 09:31:00,57.0,24.3,29.32,North,11,0.0,0.0,28,0.00,,OVC100,0.00,VWS V14.00,2013-05-15 16:31:00,
2013-05-15 09:38:00,57.0,24.3,29.32,North,11,0.0,0.0,28,0.00,,OVC100,0.00,VWS V14.00,2013-05-15 16:38:00,
2013-05-15 09:44:00,57.2,24.4,29.32,SE,131,0.0,2.7,28,0.00,,OVC100,0.00,VWS V14.00,2013-05-15 16:44:00,
2013-05-15 09:49:00,57.4,23.7,29.32,SE,131,0.0,2.7,27,0.00,,OVC100,0.00,VWS V14.00,2013-05-15 16:49:00,
2013-05-15 09:55:00,57.7,24.9,29.32,West,266,0.0,0.0,28,0.00,,OVC100,0.00,VWS V14.00,2013-05-15 16:55:00,
2013-05-15 10:00:00,58.1,25.2,29.32,ENE,73,0.0,0.0,28,0.00,,OVC100,0.00,VWS V14.00,2013-05-15 17:00:00,
2013-05-15 10:07:00,58.3,25.3,29.32,ESE,114,0.0,0.0,28,0.00,,CLR,0.00,VWS V14.00,2013-05-15 17:07:00,
2013-05-15 10:13:00,58.6,25.6,29.32,SSE,158,0.0,0.0,28,0.00,,CLR,0.00,VWS V14.00,2013-05-15 17:13:00,
2013-05-15 10:20:00,58.8,26.6,29.32,NW,310,3.1,3.1,29,0.00,,CLR,0.00,VWS V14.00,2013-05-15 17:20:00,
2013-05-15 10:26:00,59.2,26.1,29.32,NNW,330,2.7,3.1,28,0.00,,CLR,0.00,VWS V14.00,2013-05-15 17:26:00,
2013-05-15 10:31:00,59.4,25.4,29.32,NNW,330,0.0,0.0,27,0.00,,CLR,0.00,VWS V14.00,2013-05-15 17:31:00,
2013-05-15 10:38:00,59.9,25.9,29.32,WNW,303,0.0,2.7,27,0.00,,CLR,0.00,VWS V14.00,2013-05-15 17:38:00,
2013-05-15 10:44:00,60.1,26.0,29.32,West,274,0.0,0.0,27,0.00,,CLR,0.00,VWS V14.00,2013-05-15 17:44:00,
2013-05-15 10:50:00,60.1,26.0,29.32,West,274,0.0,2.2,27,0.00,,CLR,0.00,VWS V14.00,2013-05-15 17:50:00,
2013-05-15 10:57:00,61.0,25.9,29.32,West,274,0.0,0.0,26,0.00,,CLR,0.00,VWS V14.00,2013-05-15 17:57:00,
2013-05-15 11:02:00,62.1,27.7,29.32,West,274,0.0,0.0,27,0.00,,FEW100,0.00,VWS V14.00,2013-05-15 18:02:00,
2013-05-15 11:08:00,62.6,26.3,29.32,WSW,246,2.7,4.0,25,0.00,,FEW100,0.00,VWS V14.00,2013-05-15 18:08:00,
2013-05-15 11:13:00,62.8,26.5,29.32,NW,311,0.0,0.0,25,0.00,,FEW100,0.00,VWS V14.00,2013-05-15 18:13:00,
2013-05-15 11:18:00,63.0,25.6,29.32,NW,320,0.0,3.6,24,0.00,,FEW100,0.00,VWS V14.00,2013-05-15 18:18:00,
2013-05-15 11:25:00,63.1,25.8,29.32,ESE,121,0.0,0.0,24,0.00,,FEW100,0.00,VWS V14.00,2013-05-15 18:25:00,
2013-05-15 11:30:00,63.0,25.6,29.32,West,272,2.7,3.1,24,0.00,,FEW100,0.00,VWS V14.00,2013-05-15 18:30:00,
2013-05-15 11:36:00,63.3,25.9,29.32,WNW,296,0.0,0.0,24,0.00,,FEW100,0.00,VWS V14.00,2013-05-15 18:36:00,
2013-05-15 11:41:00,63.7,26.2,29.32,NW,312,0.0,0.0,24,0.00,,FEW100,0.00,VWS V14.00,2013-05-15 18:41:00,
2013-05-15 11:46:00,64.4,26.9,29.32,WNW,288,2.7,3.1,24,0.00,,FEW100,0.00,VWS V14.00,2013-05-15 18:46:00,
2013-05-15 11:52:00,64.9,26.3,29.32,West,263,3.1,3.1,23,0.00,,FEW100,0.00,VWS V14.00,2013-05-15 18:52:00,
2013-05-15 11:57:00,65.3,26.6,29.32,West,268,0.0,2.7,23,0.00,,FEW100,0.00,VWS V14.00,2013-05-15 18:57:00,
2013-05-15 12:03:00,65.8,27.0,29.32,North,5,0.0,0.0,23,0.00,,CLR,0.00,VWS V14.00,2013-05-15 19:03:00,
2013-05-15 12:09:00,66.7,27.8,29.32,SSE,149,3.6,3.6,23,0.00,,CLR,0.00,VWS V14.00,2013-05-15 19:09:00,
2013-05-15 12:15:00,67.3,28.2,29.32,North,0,0.0,0.0,23,0.00,,CLR,0.00,VWS V14.00,2013-05-15 19:15:00,
2013-05-15 12:20:00,67.6,28.5,29.32,NW,323,2.7,2.7,23,0.00,,CLR,0.00,VWS V14.00,2013-05-15 19:20:00,
2013-05-15 12:26:00,67.1,28.1,29.32,ESE,117,2.7,3.1,23,0.00,,CLR,0.00,VWS V14.00,2013-05-15 19:26:00,
2013-05-15 12:31:00,66.9,27.9,29.32,ESE,123,0.0,0.0,23,0.00,,CLR,0.00,VWS V14.00,2013-05-15 19:31:00,
2013-05-15 12:36:00,66.2,27.3,29.32,West,274,0.0,0.0,23,0.00,,CLR,0.00,VWS V14.00,2013-05-15 19:36:00,
2013-05-15 12:42:00,65.7,26.9,29.32,NNW,333,0.0,3.6,23,0.00,,CLR,0.00,VWS V14.00,2013-05-15 19:42:00,
2013-05-15 12:48:00,65.5,26.7,29.32,WNW,286,0.0,0.0,23,0.00,,CLR,0.00,VWS V14.00,2013-05-15 19:48:00,
2013-05-15 12:56:00,64.8,26.1,29.32,SSE,167,0.0,5.4,23,0.00,,CLR,0.00,VWS V14.00,2013-05-15 19:56:00,
2013-05-15 13:03:00,64.8,26.1,29.32,SSE,154,0.0,0.0,23,0.00,,BKN110,0.00,VWS V14.00,2013-05-15 20:03:00,
2013-05-15 13:09:00,64.4,25.8,29.32,WSW,237,3.6,3.6,23,0.00,,BKN110,0.00,VWS V14.00,2013-05-15 20:09:00,
2013-05-15 13:15:00,63.7,25.2,29.32,SE,140,0.0,4.0,23,0.00,,BKN110,0.00,VWS V14.00,2013-05-15 20:15:00,
2013-05-15 13:20:00,63.5,26.1,29.32,ESE,123,0.0,0.0,24,0.00,,BKN110,0.00,VWS V14.00,2013-05-15 20:20:00,
2013-05-15 13:26:00,63.7,26.2,29.32,NW,321,0.0,0.0,24,0.00,,BKN110,0.00,VWS V14.00,2013-05-15 20:26:00,
2013-05-15 13:31:00,63.9,26.4,29.32,SSE,154,3.6,3.6,24,0.00,,BKN110,0.00,VWS V14.00,2013-05-15 20:31:00,
2013-05-15 13:36:00,64.2,25.7,29.32,NW,310,2.7,2.7,23,0.00,,BKN110,0.00,VWS V14.00,2013-05-15 20:36:00,
2013-05-15 13:42:00,64.0,26.5,29.32,ESE,115,0.0,0.0,24,0.00,,BKN110,0.00,VWS V14.00,2013-05-15 20:42:00,
2013-05-15 13:47:00,64.2,25.7,29.32,West,276,0.0,2.2,23,0.00,,BKN110,0.00,VWS V14.00,2013-05-15 20:47:00,
2013-05-15 13:52:00,63.9,26.4,29.32,SSE,164,0.0,0.0,24,0.00,,BKN110,0.00,VWS V14.00,2013-05-15 20:52:00,
2013-05-15 13:57:00,63.5,26.1,29.32,East,95,2.2,2.2,24,0.00,,BKN110,0.00,VWS V14.00,2013-05-15 20:57:00,
2013-05-15 14:03:00,63.3,24.9,29.32,WNW,295,3.6,4.9,23,0.00,,SCT095,0.00,VWS V14.00,2013-05-15 21:03:00,
2013-05-15 14:08:00,63.0,24.6,29.32,South,171,0.0,2.2,23,0.00,,SCT095,0.00,VWS V14.00,2013-05-15 21:08:00,
2013-05-15 14:13:00,62.2,25.0,29.32,West,274,0.0,2.2,24,0.00,,SCT095,0.00,VWS V14.00,2013-05-15 21:13:00,
2013-05-15 14:19:00,61.9,24.7,29.32,NW,309,0.0,4.0,24,0.00,,SCT095,0.00,VWS V14.00,2013-05-15 21:19:00,
2013-05-15 14:24:00,61.7,24.6,29.32,WNW,294,2.7,2.7,24,0.00,,SCT095,0.00,VWS V14.00,2013-05-15 21:24:00,
2013-05-15 14:31:00,61.3,24.3,29.32,NNW,333,0.0,3.1,24,0.00,,SCT095,0.00,VWS V14.00,2013-05-15 21:31:00,
2013-05-15 14:36:00,61.3,24.3,29.32,NW,310,0.0,2.7,24,0.00,,SCT095,0.00,VWS V14.00,2013-05-15 21:36:00,
2013-05-15 14:42:00,61.3,24.3,29.32,SE,135,2.2,3.1,24,0.00,,SCT095,0.00,VWS V14.00,2013-05-15 21:42:00,
2013-05-15 14:48:00,61.5,24.4,29.32,WNW,293,2.7,2.7,24,0.00,,SCT095,0.00,VWS V14.00,2013-05-15 21:48:00,
2013-05-15 14:55:00,61.5,24.4,29.32,ESE,119,2.2,2.2,24,0.00,,SCT095,0.00,VWS V14.00,2013-05-15 21:55:00,
2013-05-15 15:01:00,61.2,25.1,29.32,West,273,6.3,6.3,25,0.00,,OVC090,0.00,VWS V14.00,2013-05-15 22:01:00,
2013-05-15 15:06:00,61.0,24.9,29.32,SE,138,2.7,2.7,25,0.00,,OVC090,0.00,VWS V14.00,2013-05-15 22:06:00,
2013-05-15 15:12:00,60.6,24.6,29.32,NNW,330,0.0,0.0,25,0.00,,OVC090,0.00,VWS V14.00,2013-05-15 22:12:00,
2013-05-15 15:18:00,60.6,24.6,29.32,East,83,0.0,0.0,25,0.00,,OVC090,0.00,VWS V14.00,2013-05-15 22:18:00,
2013-05-15 15:23:00,60.6,25.6,29.32,ENE,75,0.0,2.2,26,0.00,,OVC090,0.00,VWS V14.00,2013-05-15 22:23:00,
2013-05-15 15:29:00,60.8,25.7,29.32,ESE,106,2.2,2.2,26,0.00,,OVC090,0.00,VWS V14.00,2013-05-15 22:29:00,
2013-05-15 15:34:00,60.6,25.6,29.32,North,350,0.0,4.0,26,0.00,,OVC090,0.00,VWS V14.00,2013-05-15 22:34:00,
2013-05-15 15:40:00,60.3,26.2,29.32,NW,315,0.0,2.7,27,0.00,,OVC090,0.00,VWS V14.00,2013-05-15 22:40:00,
2013-05-15 15:46:00,59.7,25.7,29.32,NNW,339,2.2,2.7,27,0.00,,OVC090,0.00,VWS V14.00,2013-05-15 22:46:00,
2013-05-15 15:51:00,59.0,25.1,29.32,NW,304,3.6,3.6,27,0.00,,OVC090,0.00,VWS V14.00,2013-05-15 22:51:00,
2013-05-15 15:56:00,58.3,25.3,29.32,East,92,2.2,3.1,28,0.00,,OVC090,0.00,VWS V14.00,2013-05-15 22:56:00,
2013-05-15 16:02:00,57.9,25.0,29.32,WSW,244,0.0,2.2,28,0.00,,-RA,0.00,VWS V14.00,2013-05-15 23:02:00,
2013-05-15 16:07:00,57.6,25.6,29.32,SE,136,2.2,2.7,29,0.00,,-RA,0.00,VWS V14.00,2013-05-15 23:07:00,
2013-05-15 16:12:00,57.2,29.1,29.32,WSW,251,0.0,2.7,34,0.00,,-RA,0.00,VWS V14.00,2013-05-15 23:12:00,
2013-05-15 16:18:00,56.7,29.3,29.32,North,11,0.0,0.0,35,0.00,,-RA,0.00,VWS V14.00,2013-05-15 23:18:00,
2013-05-15 16:23:00,56.1,29.5,29.32,North,7,0.0,0.0,36,0.00,,-RA,0.00,VWS V14.00,2013-05-15 23:23:00,
2013-05-15 16:33:00,55.4,29.6,29.32,North,10,0.0,0.0,37,0.00,,-RA,0.00,VWS V14.00,2013-05-15 23:33:00,
2013-05-15 16:39:00,55.2,30.1,29.32,NW,320,0.0,0.0,38,0.00,,-RA,0.00,VWS V14.00,2013-05-15 23:39:00,
2013-05-15 16:47:00,54.9,29.8,29.32,SE,141,2.7,2.7,38,0.00,,-RA,0.00,VWS V14.00,2013-05-15 23:47:00,
2013-05-15 16:53:00,54.7,30.2,29.32,SE,138,0.0,2.2,39,0.00,,-RA,0.00,VWS V14.00,2013-05-15 23:53:00,
2013-05-15 16:58:00,54.7,30.2,29.32,SE,138,0.0,0.0,39,0.00,,-RA,0.00,VWS V14.00,2013-05-15 23:58:00,
2013-05-15 17:04:00,54.7,30.9,29.32,SE,139,0.0,0.0,40,0.00,,-RA,0.00,VWS V14.00,2013-05-16 00:04:00,
2013-05-15 17:10:00,54.7,30.9,29.32,SE,138,0.0,0.0,40,0.00,,-RA,0.00,VWS V14.00,2013-05-16 00:10:00,
2013-05-15 17:15:00,54.7,31.5,29.32,SE,138,0.0,0.0,41,0.00,,-RA,0.00,VWS V14.00,2013-05-16 00:15:00,
2013-05-15 17:22:00,54.7,32.1,29.32,SE,138,0.0,0.0,42,0.00,,-RA,0.00,VWS V14.00,2013-05-16 00:22:00,
2013-05-15 17:28:00,54.5,32.5,29.32,SE,139,0.0,0.0,43,0.00,,-RA,0.00,VWS V14.00,2013-05-16 00:28:00,
2013-05-15 17:33:00,54.3,32.3,29.32,SE,138,0.0,0.0,43,0.00,,-RA,0.00,VWS V14.00,2013-05-16 00:33:00,
2013-05-15 17:39:00,54.3,32.9,29.32,East,90,0.0,0.0,44,0.00,,-RA,0.00,VWS V14.00,2013-05-16 00:39:00,
2013-05-15 17:45:00,54.3,33.5,29.32,East,90,0.0,0.0,45,0.00,,-RA,0.00,VWS V14.00,2013-05-16 00:45:00,
2013-05-15 17:52:00,54.1,33.8,29.32,East,90,0.0,0.0,46,0.00,,-RA,0.00,VWS V14.00,2013-05-16 00:52:00,
2013-05-15 17:57:00,54.0,33.7,29.32,East,86,0.0,0.0,46,0.00,,-RA,0.00,VWS V14.00,2013-05-16 00:57:00,
2013-05-15 18:03:00,54.0,33.7,29.32,East,86,0.0,3.1,46,0.00,,-RA,0.00,VWS V14.00,2013-05-16 01:03:00,
2013-05-15 18:08:00,54.0,34.2,29.32,East,86,0.0,0.0,47,0.00,,-RA,0.00,VWS V14.00,2013-05-16 01:08:00,
2013-05-15 18:14:00,54.0,34.2,29.32,East,79,0.0,2.7,47,0.00,,-RA,0.00,VWS V14.00,2013-05-16 01:14:00,
2013-05-15 18:20:00,53.8,34.0,29.32,ESE,123,0.0,0.0,47,0.00,,-RA,0.00,VWS V14.00,2013-05-16 01:20:00,
2013-05-15 18:25:00,53.8,34.6,29.32,ESE,104,0.0,2.7,48,0.00,,-RA,0.00,VWS V14.00,2013-05-16 01:25:00,
2013-05-15 18:31:00,53.6,34.4,29.32,East,82,3.6,3.6,48,0.00,,-RA,0.00,VWS V14.00,2013-05-16 01:31:00,
2013-05-15 18:38:00,53.4,34.8,29.32,East,82,0.0,0.0,49,0.00,,-RA,0.00,VWS V14.00,2013-05-16 01:38:00,
2013-05-15 18:43:00,53.4,34.8,29.32,East,82,0.0,0.0,49,0.00,,-RA,0.00,VWS V14.00,2013-05-16 01:43:00,
2013-05-15 18:49:00,53.4,35.3,29.32,ESE,122,0.0,0.0,50,0.00,,-RA,0.00,VWS V14.00,2013-05-16 01:49:00,
2013-05-15 18:55:00,53.4,35.3,29.32,ESE,122,0.0,0.0,50,0.00,,-RA,0.00,VWS V14.00,2013-05-16 01:55:00,
2013-05-15 19:00:00,53.2,35.1,29.32,ESE,113,0.0,0.0,50,0.00,,-RA,0.00,VWS V14.00,2013-05-16 02:00:00,
2013-05-15 19:07:00,53.1,34.9,29.32,East,85,0.0,0.0,50,0.00,,-RA,0.00,VWS V14.00,2013-05-16 02:07:00,
2013-05-15 19:13:00,53.1,35.4,29.32,NNE,14,0.0,0.0,51,0.00,,-RA,0.00,VWS V14.00,2013-05-16 02:13:00,
2013-05-15 19:18:00,53.1,35.4,29.32,NE,56,0.0,0.0,51,0.00,,-RA,0.00,VWS V14.00,2013-05-16 02:18:00,
2013-05-15 19:24:00,52.9,35.3,29.32,NE,56,0.0,0.0,51,0.00,,-RA,0.00,VWS V14.00,2013-05-16 02:24:00,
2013-05-15 19:30:00,52.9,35.3,29.32,ENE,64,0.0,2.2,51,0.00,,-RA,0.00,VWS V14.00,2013-05-16 02:30:00,
2013-05-15 19:35:00,52.7,35.6,29.32,NE,50,0.0,0.0,52,0.00,,-RA,0.00,VWS V14.00,2013-05-16 02:35:00,
2013-05-15 19:41:00,52.7,35.6,29.32,NE,41,0.0,0.0,52,0.00,,-RA,0.00,VWS V14.00,2013-05-16 02:41:00,
2013-05-15 19:46:00,52.7,35.6,29.32,NE,41,0.0,2.2,52,0.00,,-RA,0.00,VWS V14.00,2013-05-16 02:46:00,
2013-05-15 19:52:00,52.5,35.9,29.32,East,81,0.0,2.2,53,0.00,,-RA,0.00,VWS V14.00,2013-05-16 02:52:00,
2013-05-15 19:58:00,52.5,35.9,29.32,East,81,0.0,0.0,53,0.00,,-RA,0.00,VWS V14.00,2013-05-16 02:58:00,
2013-05-15 20:03:00,52.5,35.9,29.32,East,81,0.0,0.0,53,0.00,,-RA,0.00,VWS V14.00,2013-05-16 03:03:00,
2013-05-15 20:09:00,52.5,35.9,29.32,East,81,0.0,0.0,53,0.00,,-RA,0.00,VWS V14.00,2013-05-16 03:09:00,
2013-05-15 20:15:00,52.3,36.2,29.32,East,81,0.0,0.0,54,0.00,,-RA,0.00,VWS V14.00,2013-05-16 03:15:00,
2013-05-15 20:21:00,52.3,36.2,29.32,East,81,0.0,0.0,54,0.00,,-RA,0.00,VWS V14.00,2013-05-16 03:21:00,
2013-05-15 20:26:00,52.2,36.0,29.32,East,81,0.0,0.0,54,0.00,,-RA,0.00,VWS V14.00,2013-05-16 03:26:00,
2013-05-15 20:31:00,52.2,36.5,29.32,East,81,0.0,0.0,55,0.00,,-RA,0.00,VWS V14.00,2013-05-16 03:31:00,
2013-05-15 20:38:00,52.2,36.5,29.32,East,81,0.0,0.0,55,0.00,,-RA,0.00,VWS V14.00,2013-05-16 03:38:00,
2013-05-15 20:44:00,52.0,36.3,29.32,East,81,0.0,0.0,55,0.00,,-RA,0.00,VWS V14.00,2013-05-16 03:44:00,
2013-05-15 20:51:00,52.0,36.8,29.32,East,81,0.0,0.0,56,0.00,,-RA,0.00,VWS V14.00,2013-05-16 03:51:00,
2013-05-15 20:58:00,52.0,36.8,29.32,East,81,0.0,0.0,56,0.00,,-RA,0.00,VWS V14.00,2013-05-16 03:58:00,
2013-05-15 21:02:00,52.0,36.8,29.32,East,81,0.0,0.0,56,0.00,,OVC032,0.00,VWS V14.00,2013-05-16 04:02:00,
2013-05-15 21:03:00,52.0,37.2,29.32,East,81,0.0,0.0,57,0.00,,OVC032,0.00,VWS V14.00,2013-05-16 04:03:00,
2013-05-15 21:04:00,52.0,37.2,29.32,East,81,0.0,0.0,57,0.00,,OVC032,0.00,VWS V14.00,2013-05-16 04:04:00,
2013-05-15 21:05:00,52.0,37.2,29.32,East,81,0.0,0.0,57,0.00,,OVC032,0.00,VWS V14.00,2013-05-16 04:05:00,
2013-05-15 21:06:00,52.0,37.2,29.32,East,81,0.0,0.0,57,0.00,,OVC032,0.00,VWS V14.00,2013-05-16 04:06:00,
2013-05-15 21:11:00,51.8,37.1,29.32,East,81,0.0,0.0,57,0.00,,OVC032,0.00,VWS V14.00,2013-05-16 04:11:00,
2013-05-15 21:17:00,51.8,37.1,29.32,East,81,0.0,0.0,57,0.00,,OVC032,0.00,VWS V14.00,2013-05-16 04:17:00,
2013-05-15 21:22:00,51.8,37.5,29.32,East,81,0.0,0.0,58,0.00,,OVC032,0.00,VWS V14.00,2013-05-16 04:22:00,
2013-05-15 21:27:00,51.8,37.5,29.32,East,81,0.0,0.0,58,0.00,,OVC032,0.00,VWS V14.00,2013-05-16 04:27:00,
2013-05-15 21:33:00,51.8,37.5,29.32,East,81,0.0,0.0,58,0.00,,OVC032,0.00,VWS V14.00,2013-05-16 04:33:00,
2013-05-15 21:38:00,51.8,37.5,29.32,East,81,0.0,0.0,58,0.00,,OVC032,0.00,VWS V14.00,2013-05-16 04:38:00,
2013-05-15 21:44:00,51.8,37.9,29.32,East,81,0.0,0.0,59,0.00,,OVC032,0.00,VWS V14.00,2013-05-16 04:44:00,
2013-05-15 21:49:00,51.8,37.9,29.32,East,81,0.0,0.0,59,0.00,,OVC032,0.00,VWS V14.00,2013-05-16 04:49:00,
2013-05-15 21:55:00,51.8,37.9,29.32,East,81,0.0,0.0,59,0.00,,OVC032,0.00,VWS V14.00,2013-05-16 04:55:00,
2013-05-15 22:00:00,51.8,38.4,29.32,East,81,0.0,0.0,60,0.00,,OVC032,0.00,VWS V14.00,2013-05-16 05:00:00,
2013-05-15 22:05:00,51.8,38.4,29.32,East,81,0.0,0.0,60,0.00,,OVC046,0.00,VWS V14.00,2013-05-16 05:05:00,
2013-05-15 22:10:00,51.8,38.4,29.32,East,81,0.0,0.0,60,0.00,,OVC046,0.00,VWS V14.00,2013-05-16 05:10:00,
2013-05-15 22:16:00,51.8,38.4,29.32,East,81,0.0,0.0,60,0.00,,OVC046,0.00,VWS V14.00,2013-05-16 05:16:00,
2013-05-15 22:22:00,51.8,38.8,29.32,East,81,0.0,0.0,61,0.00,,OVC046,0.00,VWS V14.00,2013-05-16 05:22:00,
2013-05-15 22:27:00,51.8,38.8,29.32,East,81,0.0,0.0,61,0.00,,OVC046,0.00,VWS V14.00,2013-05-16 05:27:00,
2013-05-15 22:33:00,51.8,38.8,29.32,East,81,0.0,0.0,61,0.00,,OVC046,0.00,VWS V14.00,2013-05-16 05:33:00,
2013-05-15 22:38:00,51.8,38.8,29.32,East,81,0.0,0.0,61,0.00,,OVC046,0.00,VWS V14.00,2013-05-16 05:38:00,
2013-05-15 22:44:00,52.0,39.4,29.32,East,81,0.0,0.0,62,0.00,,OVC046,0.00,VWS V14.00,2013-05-16 05:44:00,
2013-05-15 22:48:00,52.0,39.4,29.32,East,81,0.0,0.0,62,0.00,,OVC046,0.00,VWS V14.00,2013-05-16 05:48:00,
2013-05-15 22:54:00,52.0,39.4,29.32,East,81,0.0,0.0,62,0.00,,OVC046,0.00,VWS V14.00,2013-05-16 05:54:00,
2013-05-15 22:59:00,52.0,39.4,29.32,East,81,0.0,0.0,62,0.00,,OVC046,0.00,VWS V14.00,2013-05-16 05:59:00,
2013-05-15 23:05:00,52.0,39.8,29.32,East,81,0.0,0.0,63,0.00,,-RA,0.00,VWS V14.00,2013-05-16 06:05:00,
2013-05-15 23:11:00,52.0,39.8,29.32,East,81,0.0,0.0,63,0.00,,-RA,0.00,VWS V14.00,2013-05-16 06:11:00,
2013-05-15 23:16:00,52.0,39.8,29.32,East,81,0.0,0.0,63,0.00,,-RA,0.00,VWS V14.00,2013-05-16 06:16:00,
2013-05-15 23:21:00,52.0,39.8,29.32,East,81,0.0,0.0,63,0.00,,-RA,0.00,VWS V14.00,2013-05-16 06:21:00,
2013-05-15 23:26:00,52.0,39.8,29.32,East,81,0.0,0.0,63,0.00,,-RA,0.00,VWS V14.00,2013-05-16 06:26:00,
2013-05-15 23:32:00,52.0,40.2,29.32,East,81,0.0,0.0,64,0.00,,-RA,0.00,VWS V14.00,2013-05-16 06:32:00,
2013-05-15 23:37:00,52.0,40.2,29.32,East,81,0.0,0.0,64,0.00,,-RA,0.00,VWS V14.00,2013-05-16 06:37:00,
2013-05-15 23:43:00,52.0,40.2,29.32,East,81,0.0,0.0,64,0.00,,-RA,0.00,VWS V14.00,2013-05-16 06:43:00,
2013-05-15 23:48:00,52.0,40.2,29.32,East,81,0.0,0.0,64,0.00,,-RA,0.00,VWS V14.00,2013-05-16 06:48:00,
2013-05-15 23:54:00,52.0,40.2,29.32,East,81,0.0,0.0,64,0.00,,-RA,0.00,VWS V14.00,2013-05-16 06:54:00,